Alva, OK

8:19 PM CDT on May 25, 2017 (GMT -0500)
Alva Regional

Weather History for KAVK - February, 2012

Change the Weather History Date:

Monday, February 13, 2012

  Actual Average Record
Temperature  
Mean Temperature 35 °F -  
Max Temperature 42 °F 51 °F 77 °F (1962)
Min Temperature 28 °F 28 °F 3 °F (1948)
Degree Days  
Heating Degree Days 30    
Moisture  
Dew Point 30 °F    
Average Humidity 84    
Maximum Humidity 100    
Minimum Humidity 65    
Precipitation  
Precipitation 0.00 in - - ()
Sea Level Pressure  
Sea Level Pressure 29.81 in    
Wind  
Wind Speed 20 mph (SW)    
Max Wind Speed 30 mph    
Max Gust Speed 36 mph    
Visibility 10 miles    
Events      
Averages and records for this station are not official NWS values.
T = Trace of Precipitation, MM = Missing Value Source: NWS Daily Summary

Daily Weather History Graph

Daily Weather History Graph

Search for Another Location

Airport or City:

Trip Planner

Search our weather history database for the weather conditions in past years. The results will help you decide how hot, cold, wet, or windy it might be!

Date:

Astronomy

Feb. 13, 2012 Rise Set
Actual Time 7:25 AM CST 6:12 PM CST
Civil Twilight 6:59 AM CST 6:39 PM CST
Nautical Twilight 6:28 AM CST 7:09 PM CST
Astronomical Twilight 5:58 AM CST 7:39 PM CST
Moon No Moon Rise 10:37 AM CST (2/13)
Length of Visible Light 11h 40m
Length of Day
10h 46m
Waning Gibbous, 61% of the Moon is Illuminated
Feb 13
Waning Gibbous
Feb 14
Last Quarter
Feb 21
New
Feb 29
First Quarter
Mar 8
Full

Hourly Weather History & Observations

Time (CST) Temp. Windchill Dew Point Humidity Pressure Visibility Wind Dir Wind Speed Gust Speed Precip Events Conditions
12:10 AM 28.4 °F 15.8 °F 26.6 °F 93% 30.01 in 6.0 mi SSW 18.4 mph - N/A   Overcast
12:30 AM 28.4 °F 15.8 °F 26.6 °F 93% 30.01 in 7.0 mi SSW 18.4 mph - N/A   Overcast
12:50 AM 28.4 °F 14.7 °F 26.6 °F 93% 29.99 in 10.0 mi South 21.9 mph - N/A   Overcast
1:10 AM 28.4 °F 14.4 °F 26.6 °F 93% 29.97 in 10.0 mi South 23.0 mph 29.9 mph N/A   Overcast
1:30 AM 28.4 °F 13.8 °F 26.6 °F 93% 29.96 in 7.0 mi South 25.3 mph 33.4 mph N/A   Overcast
1:50 AM 28.4 °F 14.1 °F 26.6 °F 93% 29.95 in 10.0 mi South 24.2 mph - N/A   Overcast
2:10 AM 28.4 °F 14.7 °F 26.6 °F 93% 29.94 in 10.0 mi South 21.9 mph 29.9 mph N/A   Overcast
2:30 AM 30.2 °F 17.4 °F 26.6 °F 86% 29.94 in 10.0 mi South 20.7 mph 25.3 mph N/A   Overcast
2:50 AM 30.2 °F 18.5 °F 26.6 °F 86% 29.93 in 10.0 mi South 17.3 mph - N/A   Overcast
3:10 AM 30.2 °F 17.4 °F 28.4 °F 93% 29.91 in 10.0 mi South 20.7 mph 28.8 mph N/A   Overcast
3:30 AM 30.2 °F 16.2 °F 28.4 °F 93% 29.90 in 10.0 mi South 25.3 mph 31.1 mph N/A   Overcast
3:50 AM 32.0 °F 18.9 °F 28.4 °F 87% 29.89 in 10.0 mi SSW 24.2 mph 33.4 mph N/A   Overcast
4:10 AM 32.0 °F 18.1 °F 28.4 °F 87% 29.87 in 10.0 mi SSW 27.6 mph 34.5 mph N/A   Overcast
4:30 AM 32.0 °F 17.6 °F 28.4 °F 87% 29.86 in 10.0 mi SSW 29.9 mph 34.5 mph N/A   Overcast
4:50 AM 32.0 °F 17.9 °F 28.4 °F 87% 29.85 in 9.0 mi SSW 28.8 mph 35.7 mph N/A   Overcast
5:10 AM 32.0 °F 19.5 °F 28.4 °F 87% 29.85 in 10.0 mi SSW 21.9 mph 33.4 mph N/A   Overcast
5:30 AM 30.2 °F 15.9 °F 28.4 °F 93% 29.83 in 10.0 mi South 26.5 mph 29.9 mph N/A   Overcast
5:50 AM 32.0 °F 18.4 °F 28.4 °F 87% 29.82 in 10.0 mi SSW 26.5 mph 31.1 mph N/A   Overcast
6:10 AM 32.0 °F 18.9 °F 28.4 °F 87% 29.81 in 10.0 mi SSW 24.2 mph 29.9 mph N/A   Overcast
6:30 AM 32.0 °F 18.6 °F 28.4 °F 87% 29.81 in 10.0 mi SSW 25.3 mph - N/A   Overcast
6:50 AM 32.0 °F 18.9 °F 28.4 °F 87% 29.80 in 10.0 mi SSW 24.2 mph - N/A   Overcast
7:10 AM 32.0 °F 19.8 °F 28.4 °F 87% 29.80 in 10.0 mi SSW 20.7 mph 26.5 mph N/A   Overcast
7:30 AM 32.0 °F 20.5 °F 28.4 °F 87% 29.80 in 10.0 mi SSW 18.4 mph - N/A   Overcast
7:50 AM 32.0 °F 20.1 °F 28.4 °F 87% 29.80 in 10.0 mi SSW 19.6 mph 26.5 mph N/A   Overcast
8:10 AM 32.0 °F 20.8 °F 28.4 °F 87% 29.80 in 10.0 mi SSW 17.3 mph - N/A   Overcast
8:30 AM 32.0 °F 20.5 °F 30.2 °F 93% 29.80 in 10.0 mi SSW 18.4 mph 24.2 mph N/A   Overcast
8:50 AM 32.0 °F 20.5 °F 30.2 °F 93% 29.80 in 10.0 mi SSW 18.4 mph - N/A   Overcast
9:10 AM 32.0 °F 19.8 °F 30.2 °F 93% 29.79 in 10.0 mi SSW 20.7 mph 25.3 mph N/A   Overcast
9:30 AM 32.0 °F 19.8 °F 30.2 °F 93% 29.79 in 10.0 mi SSW 20.7 mph - N/A   Overcast
9:50 AM 32.0 °F 19.5 °F 30.2 °F 93% 29.78 in 10.0 mi SSW 21.9 mph - N/A   Overcast
10:10 AM 32.0 °F 19.8 °F 32.0 °F 100% 29.77 in 10.0 mi SSW 20.7 mph 27.6 mph N/A   Overcast
10:30 AM 32.0 °F 19.8 °F 32.0 °F 100% 29.77 in 10.0 mi SSW 20.7 mph - N/A   Overcast
10:50 AM 33.8 °F 21.6 °F 32.0 °F 93% 29.76 in 10.0 mi SW 23.0 mph 29.9 mph N/A   Overcast
11:10 AM 33.8 °F 22.2 °F 32.0 °F 93% 29.76 in 10.0 mi SSW 20.7 mph 29.9 mph N/A   Overcast
11:30 AM 33.8 °F 22.5 °F 32.0 °F 93% 29.75 in 10.0 mi SSW 19.6 mph 27.6 mph N/A   Overcast
11:50 AM 35.6 °F 25.2 °F 32.0 °F 87% 29.75 in 10.0 mi SSW 18.4 mph - N/A   Overcast
12:10 PM 35.6 °F 24.0 °F 32.0 °F 87% 29.74 in 10.0 mi SW 23.0 mph - N/A   Overcast
12:30 PM 35.6 °F 24.5 °F 32.0 °F 87% 29.73 in 10.0 mi SSW 20.7 mph - N/A   Overcast
12:50 PM 37.4 °F 27.8 °F 32.0 °F 81% 29.72 in 10.0 mi SW 17.3 mph 23.0 mph N/A   Overcast
1:10 PM 37.4 °F 28.2 °F 32.0 °F 81% 29.71 in 10.0 mi SW 16.1 mph - N/A   Overcast
1:30 PM 39.2 °F 30.8 °F 33.8 °F 81% 29.71 in 10.0 mi West 15.0 mph 21.9 mph N/A   Mostly Cloudy
1:50 PM 39.2 °F 29.8 °F 30.2 °F 70% 29.71 in 10.0 mi WNW 18.4 mph 24.2 mph N/A   Scattered Clouds
2:10 PM 39.2 °F 30.2 °F 30.2 °F 70% 29.71 in 10.0 mi WNW 17.3 mph 23.0 mph N/A   Clear
2:30 PM 39.2 °F 30.5 °F 30.2 °F 70% 29.71 in 10.0 mi WNW 16.1 mph 24.2 mph N/A   Clear
2:50 PM 39.2 °F 31.2 °F 30.2 °F 70% 29.72 in 10.0 mi NW 13.8 mph - N/A   Clear
3:10 PM 39.2 °F 33.0 °F 32.0 °F 75% 29.72 in 10.0 mi WNW 9.2 mph - N/A   Clear
3:30 PM 41.0 °F 33.1 °F 32.0 °F 70% 29.72 in 10.0 mi WNW 15.0 mph - N/A   Clear
3:50 PM 41.0 °F 34.3 °F 32.0 °F 70% 29.72 in 10.0 mi WNW 11.5 mph 17.3 mph N/A   Clear
4:10 PM 42.8 °F 35.8 °F 32.0 °F 66% 29.73 in 10.0 mi NW 13.8 mph - N/A   Clear
4:30 PM 42.8 °F 37.5 °F 32.0 °F 66% 29.73 in 10.0 mi NW 9.2 mph - N/A   Clear
4:50 PM 42.8 °F 35.8 °F 32.0 °F 66% 29.73 in 10.0 mi NNW 13.8 mph - N/A   Clear
5:10 PM 41.0 °F 33.9 °F 30.2 °F 65% 29.74 in 10.0 mi NNW 12.7 mph - N/A   Clear
5:50 PM 39.2 °F 35.9 °F 30.2 °F 70% 29.77 in 10.0 mi NNW 4.6 mph - N/A   Clear
6:10 PM 39.2 °F 35.9 °F 28.4 °F 65% 29.78 in 10.0 mi NW 4.6 mph - N/A   Clear
6:30 PM 37.4 °F - 28.4 °F 70% 29.79 in 10.0 mi Calm Calm - N/A   Clear
6:50 PM 35.6 °F 32.8 °F 28.4 °F 75% 29.79 in 10.0 mi North 3.5 mph - N/A   Mostly Cloudy
7:10 PM 39.2 °F 35.9 °F 28.4 °F 65% 29.80 in 10.0 mi North 4.6 mph - N/A   Overcast
7:30 PM 35.6 °F 31.7 °F 28.4 °F 75% 29.80 in 10.0 mi ENE 4.6 mph - N/A   Overcast
7:50 PM 35.6 °F 30.7 °F 28.4 °F 75% 29.81 in 10.0 mi ENE 5.8 mph - N/A   Mostly Cloudy
8:10 PM 35.6 °F 31.7 °F 28.4 °F 75% 29.82 in 10.0 mi East 4.6 mph - N/A   Mostly Cloudy
8:30 PM 33.8 °F 28.6 °F 28.4 °F 81% 29.82 in 10.0 mi East 5.8 mph - N/A   Mostly Cloudy
8:50 PM 33.8 °F 28.6 °F 28.4 °F 81% 29.82 in 10.0 mi East 5.8 mph - N/A   Mostly Cloudy
9:10 PM 32.0 °F 27.5 °F 28.4 °F 87% 29.83 in 10.0 mi ESE 4.6 mph - N/A   Mostly Cloudy
9:30 PM 32.0 °F 26.4 °F 28.4 °F 87% 29.83 in 10.0 mi SSE 5.8 mph - N/A   Mostly Cloudy
9:50 PM 32.0 °F 27.5 °F 28.4 °F 87% 29.84 in 10.0 mi South 4.6 mph - N/A   Mostly Cloudy
10:10 PM 32.0 °F 27.5 °F 28.4 °F 87% 29.84 in 10.0 mi South 4.6 mph - N/A   Mostly Cloudy
10:30 PM 32.0 °F 28.7 °F 28.4 °F 87% 29.85 in 10.0 mi SSE 3.5 mph - N/A   Overcast
10:50 PM 32.0 °F 28.7 °F 28.4 °F 87% 29.86 in 10.0 mi South 3.5 mph - N/A   Overcast
11:10 PM 32.0 °F - 28.4 °F 87% 29.86 in 10.0 mi Calm Calm - N/A   Mostly Cloudy
11:30 PM 32.0 °F - 28.4 °F 87% 29.86 in 10.0 mi Calm Calm - N/A   Mostly Cloudy